Regional Weather Roundup
Issued by NWS

Home | Current Version | Previous Version | Graphics & Text | Print | Product List | Glossary On
Versions: 1 2 3 4 5 6 7 8 9 10 11 12 13 14 15 16 17 18 19 20 21 22 23 24 25 26 27 28 29 30 31 32 33 34 35 36 37 38 39 40 41 42 43 44 45 46 47 48 49 50
000
ASUS45 KBOU 041507
RWRCO

WEATHER ROUNDUP FOR COLORADO
NATIONAL WEATHER SERVICE DENVER/BOULDER CO
900 AM MDT MON MAY 04 2015

NOTE: "FAIR" INDICATES FEW OR NO CLOUDS BELOW 12000 FEET WITH NO
SIGNIFICANT WEATHER AND/OR OBSTRUCTIONS TO VISIBILITY.

COZ001>005-013-030-031-041600-
...NORTHWEST COLORADO...

CITY           SKY/WX    TMP DP  RH WIND       PRES   REMARKS
CRAIG          MOSUNNY   50  43  77 CALM      30.09S
HAYDEN         CLOUDY    52  39  62 E5        30.10R
MEEKER         PTSUNNY   46  41  82 CALM      30.10S
MOUNT WERNER   NOT AVBL
STEAMBOAT SPGS PTSUNNY   47  37  68 CALM      30.10S
WALDEN         CLOUDY    41  34  75 CALM      30.15S
$$

COZ006>008-011-041600-
...WEST CENTRAL VALLEYS...

CITY           SKY/WX    TMP DP  RH WIND       PRES   REMARKS
GRAND JUNCTION MOSUNNY   60  41  49 SE7       30.02S
MONTROSE       SUNNY     57  38  48 CALM      30.07F
EAGLE          PTSUNNY   46  41  81 CALM      30.14S
RIFLE          CLOUDY    50  46  86 E3        30.08R
DELTA          SUNNY     58  44  59 E3        30.05F
NUCLA          PTSUNNY   59  36  41 E5        30.09S
$$

COZ017>023-064>068-041600-
...SOUTHWEST COLORADO...

CITY           SKY/WX    TMP DP  RH WIND       PRES   REMARKS
DURANGO        SUNNY     54  39  57 CALM      30.09F
CORTEZ         PTSUNNY   49  38  65 CALM      30.06S
PAGOSA SPRINGS SUNNY     52  36  54 CALM      30.15F
TELLURIDE      MOSUNNY   46  35  66 SE5       30.18F
WOLF CREEK PAS NOT AVBL
$$

COZ009-010-012-014-032>034-037-058>063-041600-
...CENTRAL COLORADO...

CITY           SKY/WX    TMP DP  RH WIND       PRES   REMARKS
ASPEN          PTSUNNY   47  37  68 CALM      30.13S
BUENA VISTA    NOT AVBL
COPPER MTN     CLOUDY    37  28  70 SE12      30.29S
BERTHOUD PASS  HAZE      28  19  69 SE5       30.33S VSB 1   WCI  23
COTTONWOOD PAS CLOUDY    43  37  81 CALM      30.24S
GUNNISON       SUNNY     43  36  75 N6        30.20F
KREMMLING      PTSUNNY   43  34  70 CALM      30.16S
LEADVILLE      CLOUDY    37  34  89 VRB3      30.22S
MONARCH PASS   FOG       32  32 100 CALM      30.41S VSB 1/4
SALIDA         PTSUNNY   50  42  75 CALM      30.25S
SUNLIGHT       CLOUDY    39  34  81 CALM      30.28R
WILKERSON PASS FOG       32  32 100 MISG      30.32R VSB<1/4
$$

COZ069>075-041600-
...SAN LUIS VALLEY/SANGRE DE CRISTO MOUNTAINS...

CITY           SKY/WX    TMP DP  RH WIND       PRES   REMARKS
ALAMOSA        MOSUNNY   48  38  68 E5        30.16F
LA VETA PASS   FOG       37  36  93 MISG      30.26S VSB<1/4
SAGUACHE       SUNNY     50  36  57 SW3       30.17S
$$

COZ035-036-038>040-041600-
...NORTHERN COLORADO FRONT RANGE...

CITY           SKY/WX    TMP DP  RH WIND       PRES   REMARKS
DENVER INTL AP CLOUDY    50  46  86 E7        30.13S
DMNS CITY PARK   N/A     52  46  81 E5        30.13S
AURORA         NOT AVBL
FRONT RANGE AP LGT RAIN  50  48  93 E6        30.15R
ERIE MUNI ARPT RAIN      51  48  89 N3        30.13S
BOULDER MUN AP LGT RAIN  48  48 100 CALM      30.13S
CENTENNIAL     CLOUDY    50  45  83 CALM      30.14R
BROOMFIELD     CLOUDY    50  46  87 N3        30.14S
FORT COLLINS   CLOUDY    52  46  82 E3        30.14F
LONGMONT       RAIN      54  49  85 CALM      30.15R
$$

COZ041-046-047-076>085-087-088-041600-
...PIKES PEAK/PALMER DIVIDE AND SOUTHERN FOOTHILLS...

CITY           SKY/WX    TMP DP  RH WIND       PRES   REMARKS
COLO. SPRINGS  PTSUNNY   53  45  74 SW5       30.15R
A. F. ACADEMY  NOT AVBL
ELLICOTT       CLOUDY   N/A N/A N/A VRB3      30.14R
FALCON         CLOUDY    51  46  83 NE3       30.18R
FORT CARSON    NOT AVBL
LIMON          LGT RAIN  52  45  77 E7        30.13S
MONUMENT HILL  CLOUDY    45  43  93 CALM      30.17R
TRINIDAD       MOSUNNY   57  45  64 VRB5      30.12S
$$

COZ042>045-048>051-090-091-041600-
...NORTHEAST COLORADO...

CITY           SKY/WX    TMP DP  RH WIND       PRES   REMARKS
GREELEY ARPT   CLOUDY    52  39  62 SE10      30.15R
AKRON          CLOUDY    50  40  68 E12       30.13R
BURLINGTON     CLOUDY    52  44  74 N12       30.10F
WRAY           LGT RAIN  52  41  66 N6        30.12S
STERLING       CLOUDY    54  37  54 E7        30.13S
HOLYOKE        NOT AVBL
FORT MORGAN    CLOUDY    50 -16   6 E8        30.15R
$$

COZ086-089-092>099-041600-
...SOUTHEAST COLORADO...

CITY           SKY/WX    TMP DP  RH WIND       PRES   REMARKS
PUEBLO         CLOUDY    57  49  74 CALM      30.10S
LA JUNTA       PTSUNNY   60  50  69 NE10      30.09R
LAMAR          PTSUNNY   60  49  66 NE10      30.05R
SPRINGFIELD      N/A     62  50  64 N17       30.06R
$$



USA.gov is the U.S. government's official web portal to all federal, state and local government web resources and services.